Weather History for KCKC - January, 2013

Change the Weather History Date:

Thursday, January 3, 2013

  Actual Average Record
Temperature  
Mean Temperature 11 °F -  
Max Temperature 17 °F 15 °F 33 °F (2004)
Min Temperature 5 °F 1 °F -25 °F (2014)
Degree Days  
Heating Degree Days 54    
Moisture  
Dew Point 5 °F    
Average Humidity 69    
Maximum Humidity 86    
Minimum Humidity 53    
Precipitation  
Precipitation 0.00 in - - ()
Sea Level Pressure  
Sea Level Pressure 29.86 in    
Wind  
Wind Speed 8 mph (West)    
Max Wind Speed 15 mph    
Max Gust Speed 25 mph    
Visibility 8 miles    
Events Snow    
Averages and records for this station are not official NWS values.
T = Trace of Precipitation, MM = Missing Value Source: NWS Daily Summary

Daily Weather History Graph

Daily Weather History Graph

Search for Another Location

Airport or City:

Trip Planner

Search our weather history database for the weather conditions in past years. The results will help you decide how hot, cold, wet, or windy it might be!

Date:

Astronomy

Jan. 03, 2013 Rise Set
Actual Time 7:50 AM CST 4:22 PM CST
Civil Twilight 7:14 AM CST 4:58 PM CST
Nautical Twilight 6:35 AM CST 5:37 PM CST
Astronomical Twilight 5:57 AM CST 6:14 PM CST
Moon 11:29 PM CST (1/3) 10:32 AM CST (1/3)
Length of Visible Light 9h 43m
Length of Day
8h 31m
Waning Gibbous, 65% of the Moon is Illuminated
Jan 3
Waning Gibbous
Jan 4
Last Quarter
Jan 11
New
Jan 18
First Quarter
Jan 26
Full

Hourly Weather History & Observations

Time (CST) Temp. Windchill Dew Point Humidity Pressure Visibility Wind Dir Wind Speed Gust Speed Precip Events Conditions
12:14 AM 15.8 °F 10.2 °F 12.2 °F 86% 29.88 in 5.0 mi WNW 3.5 mph - N/A   Overcast
12:34 AM 17.6 °F 9.3 °F 12.2 °F 79% 29.88 in 5.0 mi NW 5.8 mph - N/A   Overcast
12:53 AM 17.6 °F 9.3 °F 12.2 °F 79% 29.88 in 5.0 mi NW 5.8 mph - N/A Snow Light Snow
1:14 AM 17.6 °F 9.3 °F 12.2 °F 79% 29.88 in 7.0 mi WNW 5.8 mph - N/A   Overcast
1:34 AM 17.6 °F 8.2 °F 12.2 °F 79% 29.88 in 7.0 mi NW 6.9 mph - N/A   Overcast
1:53 AM 17.6 °F 8.2 °F 12.2 °F 79% 29.88 in 7.0 mi NW 6.9 mph - N/A   Overcast
2:14 AM 17.6 °F 9.3 °F 12.2 °F 79% 29.88 in 7.0 mi NW 5.8 mph - N/A   Overcast
2:34 AM 15.8 °F 6.1 °F 12.2 °F 86% 29.88 in 7.0 mi NW 6.9 mph - N/A   Overcast
2:53 AM 15.8 °F 6.1 °F 12.2 °F 86% 29.89 in 7.0 mi NW 6.9 mph - N/A   Overcast
3:14 AM 15.8 °F 7.2 °F 12.2 °F 86% 29.90 in 7.0 mi NW 5.8 mph - N/A   Overcast
3:34 AM 15.8 °F 2.1 °F 10.4 °F 79% 29.91 in 7.0 mi NW 12.7 mph 17.3 mph N/A   Overcast
3:53 AM 15.8 °F 3.4 °F 10.4 °F 79% 29.91 in 7.0 mi WNW 10.4 mph 17.3 mph N/A Snow Light Snow
4:14 AM 14.0 °F -0.2 °F 8.6 °F 79% 29.92 in 5.0 mi NW 12.7 mph 23.0 mph N/A Snow Light Snow
4:33 AM 12.2 °F -3.7 °F 8.6 °F 85% 29.93 in 3.0 mi NW 15.0 mph 21.9 mph N/A Snow Light Snow
4:54 AM 10.4 °F -3.3 °F 6.8 °F 85% 29.92 in 2.5 mi NW 10.4 mph - N/A Snow Light Snow
5:13 AM 10.4 °F -1.5 °F 6.8 °F 85% 29.93 in 2.0 mi WNW 8.1 mph 17.3 mph N/A Snow Light Snow
5:34 AM 8.6 °F -5.5 °F 3.2 °F 79% 29.93 in 2.5 mi NW 10.4 mph - N/A Snow Light Snow
5:53 AM 8.6 °F -7.0 °F 3.2 °F 79% 29.93 in 7.0 mi NW 12.7 mph - N/A Snow Light Snow
6:13 AM 8.6 °F -4.7 °F 3.2 °F 79% 29.94 in 5.0 mi NW 9.2 mph 16.1 mph N/A Snow Light Snow
6:34 AM 6.8 °F -7.8 °F 1.4 °F 79% 29.95 in 3.0 mi NW 10.4 mph - N/A Snow Light Snow
6:53 AM 6.8 °F -8.6 °F 1.4 °F 79% 29.95 in 2.0 mi NW 11.5 mph 19.6 mph N/A Snow Light Snow
7:13 AM 6.8 °F -6.9 °F -0.4 °F 72% 29.94 in 3.0 mi NW 9.2 mph 20.7 mph N/A Snow Light Snow
7:34 AM 6.8 °F -7.8 °F -0.4 °F 72% 29.95 in 7.0 mi NW 10.4 mph 21.9 mph N/A Snow Light Snow
7:53 AM 5.0 °F -9.1 °F -0.4 °F 78% 29.95 in 7.0 mi NW 9.2 mph - N/A Snow Light Snow
8:13 AM 5.0 °F -10.0 °F -0.4 °F 78% 29.95 in 10.0 mi NW 10.4 mph 18.4 mph N/A   Clear
8:34 AM 5.0 °F -12.3 °F -0.4 °F 78% 29.95 in 10.0 mi NW 13.8 mph 23.0 mph N/A Snow Light Snow
8:53 AM 5.0 °F -8.1 °F -0.4 °F 78% 29.95 in 10.0 mi NW 8.1 mph - N/A Snow Light Snow
9:14 AM 6.8 °F -6.9 °F -0.4 °F 72% 29.95 in 10.0 mi WNW 9.2 mph 20.7 mph N/A Snow Light Snow
9:33 AM 6.8 °F -5.9 °F -0.4 °F 72% 29.96 in 10.0 mi NW 8.1 mph 17.3 mph N/A   Clear
9:54 AM 8.6 °F -1.3 °F -0.4 °F 67% 29.96 in 10.0 mi WNW 5.8 mph - N/A   Clear
10:34 AM 10.4 °F 2.2 °F -0.4 °F 62% 29.96 in 10.0 mi WNW 4.6 mph - N/A   Clear
10:53 AM 10.4 °F -0.4 °F -2.2 °F 57% 29.96 in 10.0 mi WNW 6.9 mph - N/A   Clear
11:13 AM 12.2 °F - -0.4 °F 57% 29.96 in 10.0 mi Calm Calm - N/A   Clear
11:34 AM 15.8 °F 8.6 °F 1.4 °F 53% 29.95 in 10.0 mi West 4.6 mph - N/A   Clear
11:53 AM 15.8 °F 8.6 °F 1.4 °F 53% 29.95 in 10.0 mi West 4.6 mph - N/A   Clear
12:13 PM 15.8 °F 7.2 °F 3.2 °F 58% 29.93 in 10.0 mi SSW 5.8 mph - N/A   Clear
12:34 PM 15.8 °F 8.6 °F 3.2 °F 58% 29.93 in 10.0 mi SSW 4.6 mph - N/A   Clear
12:54 PM 17.6 °F 5.7 °F 3.2 °F 53% 29.92 in 10.0 mi SW 10.4 mph - N/A   Clear
1:13 PM 17.6 °F 9.3 °F 5.0 °F 58% 29.91 in 10.0 mi SW 5.8 mph - N/A   Clear
1:34 PM 17.6 °F 9.3 °F 6.8 °F 63% 29.90 in 10.0 mi SW 5.8 mph - N/A   Clear
1:54 PM 17.6 °F 6.4 °F 5.0 °F 58% 29.90 in 10.0 mi SW 9.2 mph - N/A   Clear
2:13 PM 17.6 °F 8.2 °F 5.0 °F 58% 29.89 in 10.0 mi WSW 6.9 mph - N/A   Clear
2:33 PM 17.6 °F 8.2 °F 3.2 °F 53% 29.88 in 10.0 mi WSW 6.9 mph 17.3 mph N/A   Clear
2:54 PM 17.6 °F 8.2 °F 3.2 °F 53% 29.88 in 10.0 mi SW 6.9 mph - N/A   Clear
3:34 PM 15.8 °F 4.2 °F 3.2 °F 58% 29.87 in 10.0 mi SW 9.2 mph - N/A   Clear
3:54 PM 17.6 °F 6.4 °F 3.2 °F 53% 29.86 in 10.0 mi SW 9.2 mph 16.1 mph N/A   Clear
4:13 PM 15.8 °F 6.1 °F 3.2 °F 58% 29.85 in 10.0 mi SW 6.9 mph 17.3 mph N/A   Scattered Clouds
4:34 PM 15.8 °F 5.1 °F 3.2 °F 58% 29.84 in 10.0 mi SSW 8.1 mph 16.1 mph N/A   Scattered Clouds
4:53 PM 15.8 °F 5.1 °F 3.2 °F 58% 29.83 in 10.0 mi SW 8.1 mph 16.1 mph N/A   Scattered Clouds
5:13 PM 14.0 °F 2.0 °F 3.2 °F 62% 29.82 in 10.0 mi SSW 9.2 mph 17.3 mph N/A   Clear
5:34 PM 12.2 °F -0.2 °F 3.2 °F 67% 29.81 in 10.0 mi SW 9.2 mph 16.1 mph N/A   Clear
5:53 PM 12.2 °F -0.2 °F 3.2 °F 67% 29.80 in 10.0 mi SSW 9.2 mph 16.1 mph N/A   Clear
6:13 PM 12.2 °F -1.0 °F 3.2 °F 67% 29.79 in 10.0 mi SW 10.4 mph 17.3 mph N/A   Clear
6:34 PM 12.2 °F -0.2 °F 3.2 °F 67% 29.77 in 10.0 mi SSW 9.2 mph - N/A   Clear
6:53 PM 14.0 °F 2.9 °F 5.0 °F 67% 29.75 in 10.0 mi SSW 8.1 mph - N/A   Clear
7:14 PM 14.0 °F 1.2 °F 6.8 °F 73% 29.73 in 10.0 mi SSW 10.4 mph 17.3 mph N/A   Scattered Clouds
7:33 PM 15.8 °F 5.1 °F 6.8 °F 68% 29.72 in 10.0 mi SSW 8.1 mph - N/A   Mostly Cloudy
7:53 PM 15.8 °F 2.7 °F 6.8 °F 68% 29.70 in 10.0 mi SSW 11.5 mph 16.1 mph N/A   Overcast
8:14 PM 15.8 °F 5.1 °F 6.8 °F 68% 29.70 in 10.0 mi SSW 8.1 mph - N/A   Scattered Clouds
8:34 PM 15.8 °F 7.2 °F 6.8 °F 68% 29.69 in 10.0 mi SSW 5.8 mph - N/A   Clear
8:53 PM 15.8 °F 5.1 °F 6.8 °F 68% 29.68 in 10.0 mi SW 8.1 mph - N/A   Clear
9:13 PM 17.6 °F 7.3 °F 6.8 °F 63% 29.68 in 10.0 mi WSW 8.1 mph 17.3 mph N/A   Clear
9:34 PM 17.6 °F 7.3 °F 6.8 °F 63% 29.69 in 10.0 mi West 8.1 mph 19.6 mph N/A   Clear
9:54 PM 17.6 °F 5.0 °F 6.8 °F 63% 29.69 in 10.0 mi West 11.5 mph 20.7 mph N/A   Clear
10:13 PM 17.6 °F 3.2 °F 6.8 °F 63% 29.69 in 10.0 mi West 15.0 mph 23.0 mph N/A   Clear
10:24 PM 17.6 °F 4.3 °F 6.8 °F 63% 29.69 in 10.0 mi West 12.7 mph 23.0 mph N/A   Clear
10:53 PM 17.6 °F 3.2 °F 6.8 °F 63% 29.68 in 10.0 mi West 15.0 mph 24.2 mph N/A   Clear
11:14 PM 15.8 °F 0.9 °F 6.8 °F 68% 29.68 in 10.0 mi West 15.0 mph 24.2 mph N/A   Clear
11:29 PM 15.8 °F 2.1 °F 8.6 °F 73% 29.69 in 10.0 mi West 12.7 mph 19.6 mph N/A   Clear
11:54 PM 15.8 °F 2.1 °F 8.6 °F 73% 29.69 in 10.0 mi West 12.7 mph 25.3 mph N/A   Clear